Regional Weather Roundup
Issued by NWS State College, PA

Home | Current Version | Previous Version | Text Only | Print | Product List | Glossary On
Versions: 1 2 3 4 5 6 7 8 9 10 11 12 13 14 15 16 17 18 19 20 21 22 23 24 25 26 27 28 29 30 31 32 33 34 35 36 37 38 39 40 41 42 43 44 45 46 47 48 49 50
000
ASUS41 KCTP 281510
RWRCTP

REGIONAL WEATHER ROUNDUP
NATIONAL WEATHER SERVICE STATE COLLEGE PA
1100 AM EDT TUE MAR 28 2017

Note: "fair" indicates few or no clouds below 12,000 feet with no
significant weather and/or obstructions to visibility.

* = STATION THAT DOES NOT REPORT PRECIPITATION /E.G. RAIN...SNOW...ETC/
    THUNDER OR FOG.

PAZ002>004-007>009-013>016-020>023-029>032-281600-
WESTERN PENNSYLVANIA

CITY           SKY/WX    TMP DP  RH WIND       PRES   REMARKS
ERIE           CLOUDY    45  44  97 NW6       29.95R FOG
MEADVILLE      CLOUDY    51  47  86 N9        29.92R
FRANKLIN*      CLOUDY    50  46  87 CALM      29.92R
NEW CASTLE     LGT RAIN  52  51  97 N9        29.92R
BEAVER COUNTY  DRZL/FOG  52  52 100 N5        29.90R VSB 1/2
BUTLER*        CLOUDY    55  54  94 CALM      29.90R
PITTSBURGH INT DRIZZLE   57  57 100 W3        29.88R FOG
PITTSBURGH     CLOUDY    57  53  86 SW6       29.88R
INDIANA*       PTSUNNY   55  55 100 CALM      29.91S
LATROBE        CLOUDY    57  57 100 SW6       29.90R
WASHINGTON CO* CLOUDY    57  55  94 SW7       29.90S
$$

PAZ004>006-010>012-017>019-024>028-033>037-041-042-045-046-049>053-281600-
CENTRAL PENNSYLVANIA

CITY           SKY/WX    TMP DP  RH WIND       PRES   REMARKS
BRADFORD       LGT RAIN  50  50 100 N6        29.90S
DUBOIS         CLOUDY    52  49  89 CALM      29.88S FOG
CLEARFIELD       N/A    N/A N/A N/A MISG      29.89S
JOHNSTOWN      LGT RAIN  54  53  97 W5        29.88S
ALTOONA        CLOUDY    56  54  93 CALM      29.88F FOG
STATE COLLEGE  RAIN      50  50 100 CALM      29.88S
WILLIAMSPORT   LGT RAIN  51  48  89 W5        29.88S
SELINSGROVE    LGT RAIN  52  50  93 NE6       29.88F FOG
FT INDIANTOWN  LGT RAIN  50  50 100 CALM      29.88R FOG
CAPITAL CITY   LGT RAIN  53  50  89 SE3       29.89R FOG
HARRISBURG     FOG       50  50 100 SW6       29.88R VSB 1/2
YORK           RAIN      51  51 100 E3        29.88R VSB 1
$$

PAZ038>040-043-044-047-048-054-055-060>062-067>071-281600-
EASTERN PENNSYLVANIA

CITY           SKY/WX    TMP DP  RH WIND       PRES   REMARKS
SCRANTON       CLOUDY    55  52  89 NE5       29.88S
MOUNT POCONO   FOG       46  46 100 E8        29.88F VSB<1/4
ALLENTOWN      LGT RAIN  50  46  86 E12       29.89F VSB 1
QUAKERTOWN*    CLOUDY    46  46 100 NE6       29.89F
READING        RAIN      51  51 100 N8        29.89R VSB 1/2
LANCASTER      CLOUDY    53  53 100 SE8       29.90R FOG
COATESVILLE    HVY RAIN  50  50 100 VRB5      29.92R VSB 1/2
POTTSTOWN      CLOUDY    47  46  97 CALM      29.93R FOG
BLUE BELL      CLOUDY    46  46 100 CALM      29.90R
DOYLESTOWN     LGT RAIN  46  46 100 VRB7      29.88S
WILLOW GROVE   NOT AVBL
NORTH PHILA    LGT RAIN  49  47  93 NE9       29.90S FOG
PHILADELPHIA   TSTM      51  49  92 VRB3      29.92R
$$



USA.gov is the U.S. government's official web portal to all federal, state and local government web resources and services.